Regional Weather Roundup
Issued by NWS Sioux Falls, SD

Home | Current Version | Previous Version | Text Only | Print | Product List | Glossary Off
Versions: 1 2 3 4 5 6 7 8 9 10 11 12 13 14 15 16 17 18 19 20 21 22 23 24 25 26 27 28 29 30 31 32 33 34 35 36 37 38 39 40 41 42 43 44 45 46 47 48 49 50

249
ASUS43 KFSD 301010
RWRFSD

WEATHER ROUNDUP FOR SE SOUTH DAKOTA/SW MINNESOTA/NW IOWA
NATIONAL WEATHER SERVICE SIOUX FALLS SD
500 AM CDT FRI SEP 30 2016

NOTE: "FAIR" INDICATES FEW OR NO CLOUDS BELOW 12,000 FEET WITH NO
SIGNIFICANT WEATHER AND OR OBSTRUCTIONS TO VISIBILITY.


SDZ038>040-050-052>070-301100-
SOUTHEAST SOUTH DAKOTA

CITY           SKY/WX    TMP DP  RH WIND       PRES   REMARKS
BROOKINGS      CLEAR     43  40  89 CALM      30.33F
CHAMBERLAIN    CLEAR     50  47  92 SE8       30.26F
HURON          CLEAR     48  45  89 SE9       30.29F
MADISON        FAIR      41  41 100 E5        30.33F
MITCHELL       CLEAR     45  43  93 SE6       30.31S
SIOUX FALLS    CLEAR     45  43  93 NE5       30.33F
WINNER         FAIR      52  45  77 S15       30.24F
YANKTON        CLEAR     45  43  93 NE5       30.30F
$$

MNZ071-072-080-081-089-090-097-098-301100-
SOUTHWEST MINNESOTA

CITY           SKY/WX    TMP DP  RH WIND       PRES   REMARKS
JACKSON        CLEAR     41  39  93 CALM      30.35F FOG
LUVERNE        CLEAR     45  41  87 CALM      30.35F
MARSHALL       CLEAR     43  41  93 CALM      30.36F
MONTEVIDEO     PTCLDY    45  45 100 S3        30.37F
PIPESTONE      CLEAR     48  45  87 E3        30.34F
REDWOOD FALLS  CLEAR     47  44  90 N3        30.36F
TRACY          CLEAR     46  46  97 CALM      30.36F
WINDOM         CLEAR     45  45 100 CALM      30.35F FOG
WORTHINGTON    CLEAR     42  41  96 NW3       30.35F
$$

IAZ001>003-012>014-020>022-031-032-NEZ013-014-SDZ071-301100-
NORTHWEST IOWA

CITY           SKY/WX    TMP DP  RH WIND       PRES   REMARKS
CHEROKEE       CLEAR     42  42 100 CALM      30.33S
DENISON        CLEAR     43  43 100 CALM      30.30S
ESTHERVILLE    CLEAR     41  41 100 NW6       30.34S
LE MARS        CLEAR     45  43  93 N3        30.33F
SHELDON        CLEAR     43  43 100 NE3       30.32F
SIOUX CITY     CLEAR     48  46  93 N5        30.32F
SPENCER        CLEAR     41  40  96 NW6       30.34S
STORM LAKE     CLEAR     46  45  93 N6        30.33S
$$

ABBREVIATIONS USED IN REMARKS
   TC - TEMPERATURE IN CELSIUS
  WCI - WIND CHILL INDEX
   HX - HEAT INDEX
  VSB - VISIBILITY





USA.gov is the U.S. government's official web portal to all federal, state and local government web resources and services.